Location: Aalsum
(53.3404°N, 6.0062°E)
Time: 09:57:30
(UTC+00:00)

Cosmos 1844 Rocket - Pass Details

Date: 28 January 2023
Orbit: 826 x 843 km, 71.0° (Epoch: 19 March)

Event Time Altitude Azimuth Distance (km) Brightness Sun altitude
Rises 17:38:11 0° 328° (NNW) 3,383 6.1 -12.9°
Reaches altitude 10° 17:40:52 10° 337° (NNW) 2,444 5.2 -13.3°
Maximum altitude 17:45:57 34° 42° (NE) 1,335 3.3 -14.0°
Enters shadow 17:49:00 20° 94° (E) 1,815 3.8 -14.5°
